FW5262 Weather Reports


Display with metric or nautical units.
time (UTC)temp
F
wind
direction
speed
MPH
gust
MPH
rain 1hr
in
rain 24hr
in
rain mn
in
humidity
%
barometer
mb
20200809164822 88 213 7.0 15.0 0.00 0.00 0.00 58 949.3
20200809164322 88 220 8.0 16.0 0.00 0.00 0.00 59 949.3
20200809163825 87 215 9.0 16.0 0.00 0.00 0.00 60 949.4
20200809163321 87 191 7.0 15.0 0.00 0.00 0.00 59 949.4
20200809162822 87 192 6.0 12.0 0.00 0.00 0.00 60 949.5
20200809162322 87 176 6.0 12.0 0.00 0.00 0.00 61 949.5
20200809161817 86 189 7.0 15.0 0.00 0.00 0.00 62 949.6
20200809161318 86 205 9.0 17.0 0.00 0.00 0.00 61 949.7
20200809160820 86 185 8.0 17.0 0.00 0.00 0.00 62 949.7
20200809160321 86 169 7.0 17.0 0.00 0.00 0.00 63 949.6
20200809155820 85 212 7.0 14.0 0.00 0.00 0.00 63 949.7
20200809155320 85 158 7.0 14.0 0.00 0.00 0.00 64 949.7
20200809154820 85 176 8.0 18.0 0.00 0.00 0.00 64 949.7
20200809154317 85 194 8.0 18.0 0.00 0.00 0.00 65 949.7
20200809153817 84 209 8.0 18.0 0.00 0.00 0.00 66 949.7
20200809153317 84 202 8.0 18.0 0.00 0.00 0.00 66 949.7
20200809152817 84 160 9.0 16.0 0.00 0.00 0.00 66 949.7
20200809152314 84 213 8.0 15.0 0.00 0.00 0.00 67 949.6
20200809151813 83 190 8.0 15.0 0.00 0.00 0.00 67 949.6
20200809151310 83 215 7.0 13.0 0.00 0.00 0.00 67 949.5
20200809150811 83 207 6.0 11.0 0.00 0.00 0.00 68 949.7
20200809150311 83 219 7.0 12.0 0.00 0.00 0.00 69 949.7
20200809145811 82 235 7.0 12.0 0.00 0.00 0.00 69 949.8
20200809145306 82 220 7.0 14.0 0.00 0.00 0.00 69 949.7
20200809144806 82 212 7.0 14.0 0.00 0.00 0.00 70 949.8
20200809144306 82 199 7.0 15.0 0.00 0.00 0.00 70 949.7
20200809143808 81 202 7.0 16.0 0.00 0.00 0.00 70 949.7
20200809143304 81 192 7.0 16.0 0.00 0.00 0.00 70 949.7
20200809142803 81 202 9.0 21.0 0.00 0.00 0.00 71 949.7
20200809142303 81 196 8.0 21.0 0.00 0.00 0.00 71 949.6
20200809141800 81 227 8.0 20.0 0.00 0.00 0.00 71 949.8
20200809141258 80 190 7.0 15.0 0.00 0.00 0.00 71 949.7
20200809140759 80 200 7.0 14.0 0.00 0.00 0.00 72 949.7
20200809140258 80 209 7.0 13.0 0.00 0.00 0.00 72 949.7
20200809135759 80 207 8.0 14.0 0.00 0.00 0.00 72 949.7
20200809135255 80 156 7.0 14.0 0.00 0.00 0.00 72 949.7
20200809134754 80 157 5.0 11.0 0.00 0.00 0.00 72 949.7
20200809134252 79 136 5.0 10.0 0.00 0.00 0.00 72 949.6
20200809133752 79 202 5.0 10.0 0.00 0.00 0.00 72 949.6
20200809133252 79 151 4.0 10.0 0.00 0.00 0.00 72 949.5
20200809132252 78 229 5.0 9.0 0.00 0.00 0.00 73 949.5
20200809131748 78 167 4.0 10.0 0.00 0.00 0.00 73 949.4
20200809131248 78 194 4.0 10.0 0.00 0.00 0.00 73 949.4
20200809130746 77 148 3.0 8.0 0.00 0.00 0.00 73 949.3
20200809130246 77 159 2.0 6.0 0.00 0.00 0.00 73 949.2
20200809125745 76 145 2.0 4.0 0.00 0.00 0.00 73 949.2
20200809125244 76 144 2.0 4.0 0.00 0.00 0.00 73 949.2
20200809124743 75 147 1.0 3.0 0.00 0.00 0.00 73 949.2
20200809124245 75 155 1.0 3.0 0.00 0.00 0.00 72 949.2
20200809123744 75 157 1.0 3.0 0.00 0.00 0.00 72 949.2
20200809123240 75 157 1.0 4.0 0.00 0.00 0.00 71 949.2
20200809122741 75 159 1.0 4.0 0.00 0.00 0.00 72 949.2
20200809122235 75 141 0.0 3.0 0.00 0.00 0.00 71 949.1
20200809121737 75 141 1.0 4.0 0.00 0.00 0.00 70 949.1
20200809121233 75 142 1.0 4.0 0.00 0.00 0.00 70 949.0
20200809120735 75 144 1.0 5.0 0.00 0.00 0.00 69 948.8
20200809115734 75 148 2.0 4.0 0.00 0.00 0.00 70 948.7
20200809115233 75 141 2.0 4.0 0.00 0.00 0.00 69 948.7
20200809114731 75 139 2.0 6.0 0.00 0.00 0.00 69 948.7
20200809113228 76 146 1.0 5.0 0.00 0.00 0.00 68 948.6
20200809112728 76 146 1.0 5.0 0.00 0.00 0.00 68 948.5
20200809112220 76 148 1.0 6.0 0.00 0.00 0.00 68 948.4
20200809110715 77 145 2.0 6.0 0.00 0.00 0.00 67 948.4
20200809110216 77 167 2.0 6.0 0.00 0.00 0.00 66 948.4
20200809105715 77 151 2.0 7.0 0.00 0.00 0.00 66 948.4
20200809104711 77 146 2.0 3.0 0.00 0.00 0.00 65 948.5
20200809104211 77 150 2.0 6.0 0.00 0.00 0.00 65 948.5
20200809103710 78 139 2.0 6.0 0.00 0.00 0.00 65 948.4
20200809103211 78 145 2.0 6.0 0.00 0.00 0.00 65 948.3
20200809102706 78 144 2.0 6.0 0.00 0.00 0.00 64 948.2
20200809102205 78 151 3.0 9.0 0.00 0.00 0.00 65 948.2
20200809101703 78 140 3.0 9.0 0.00 0.00 0.00 64 948.1
20200809101205 78 140 1.0 6.0 0.00 0.00 0.00 63 948.2
20200809100705 78 147 0.0 6.0 0.00 0.00 0.00 63 948.3
20200809100204 79 140 1.0 6.0 0.00 0.00 0.00 63 948.3
20200809095701 79 175 2.0 9.0 0.00 0.00 0.00 63 948.2
20200809095202 79 165 3.0 9.0 0.00 0.00 0.00 63 948.1
20200809094701 79 155 3.0 6.0 0.00 0.00 0.00 62 948.1
20200809094200 79 163 3.0 7.0 0.00 0.00 0.00 62 948.1
20200809093701 79 209 3.0 7.0 0.00 0.00 0.00 63 948.0
20200809093200 80 151 2.0 6.0 0.00 0.00 0.00 62 948.0
20200809092701 80 147 2.0 6.0 0.00 0.00 0.00 62 948.1
20200809092153 80 177 3.0 6.0 0.00 0.00 0.00 61 948.1
20200809091652 80 161 3.0 6.0 0.00 0.00 0.00 61 948.1
20200809091153 80 147 3.0 6.0 0.00 0.00 0.00 61 948.2
20200809090653 80 163 3.0 7.0 0.00 0.00 0.00 61 948.2
20200809085647 80 161 3.0 7.0 0.00 0.00 0.00 60 948.0
20200809085142 80 142 4.0 7.0 0.00 0.00 0.00 60 948.0
20200809084644 81 145 4.0 9.0 0.00 0.00 0.00 59 948.0
20200809084143 81 153 4.0 10.0 0.00 0.00 0.00 59 948.0
20200809083643 81 187 4.0 10.0 0.00 0.00 0.00 58 948.0
20200809083142 81 164 4.0 9.0 0.00 0.00 0.00 58 947.9
20200809082643 81 149 3.0 10.0 0.00 0.00 0.00 58 947.9
20200809082138 81 165 4.0 10.0 0.00 0.00 0.00 57 947.9
20200809081640 81 163 5.0 10.0 0.00 0.00 0.00 57 948.0
20200809081139 82 159 5.0 10.0 0.00 0.00 0.00 57 948.0
20200809080640 82 175 6.0 10.0 0.00 0.00 0.00 56 948.0
20200809080139 82 175 6.0 13.0 0.00 0.00 0.00 56 947.9
20200809075640 82 167 5.0 13.0 0.00 0.00 0.00 55 947.8
20200809075139 82 194 5.0 12.0 0.00 0.00 0.00 55 947.8
20200809074639 82 191 5.0 12.0 0.00 0.00 0.00 55 947.8
20200809074139 82 195 5.0 13.0 0.00 0.00 0.00 54 947.9
20200809073639 83 144 5.0 13.0 0.00 0.00 0.00 54 947.8
20200809073139 83 159 5.0 10.0 0.00 0.00 0.00 54 947.8
20200809072638 83 182 5.0 10.0 0.00 0.00 0.00 53 947.8
20200809072138 83 171 6.0 12.0 0.00 0.00 0.00 53 947.8
20200809071639 83 187 6.0 13.0 0.00 0.00 0.00 53 947.8
20200809071138 83 202 5.0 13.0 0.00 0.00 0.00 52 947.7
20200809070632 83 167 5.0 9.0 0.00 0.00 0.00 52 947.7
20200809070133 83 182 5.0 12.0 0.00 0.00 0.00 52 947.7
20200809065634 83 186 5.0 12.0 0.00 0.00 0.00 51 947.7
20200809065134 83 202 4.0 11.0 0.00 0.00 0.00 51 947.6
20200809064633 84 205 5.0 10.0 0.00 0.00 0.00 51 947.6
20200809064134 84 179 4.0 10.0 0.00 0.00 0.00 51 947.6
20200809063635 84 167 4.0 10.0 0.00 0.00 0.00 50 947.6
20200809063130 84 158 4.0 10.0 0.00 0.00 0.00 50 947.6
20200809062634 84 153 4.0 12.0 0.00 0.00 0.00 50 947.6
20200809062132 84 171 5.0 12.0 0.00 0.00 0.00 50 947.7
20200809061628 84 184 4.0 11.0 0.00 0.00 0.00 49 947.7
20200809061128 84 190 4.0 9.0 0.00 0.00 0.00 49 947.7
20200809060622 84 182 4.0 8.0 0.00 0.00 0.00 49 947.7
20200809060123 85 193 4.0 8.0 0.00 0.00 0.00 49 947.8
20200809055623 85 215 5.0 8.0 0.00 0.00 0.00 49 947.8
20200809055125 85 198 5.0 9.0 0.00 0.00 0.00 49 947.9
20200809054623 85 153 4.0 9.0 0.00 0.00 0.00 49 947.9
20200809054125 85 169 4.0 9.0 0.00 0.00 0.00 48 947.9
20200809053624 85 192 5.0 9.0 0.00 0.00 0.00 48 947.9
20200809053118 85 156 4.0 9.0 0.00 0.00 0.00 48 947.9
20200809052623 85 201 5.0 10.0 0.00 0.00 0.00 48 947.9
20200809052118 85 173 4.0 10.0 0.00 0.00 0.00 48 947.9
20200809051618 85 133 4.0 8.0 0.00 0.00 0.00 48 947.9
20200809051119 84 169 4.0 10.0 0.00 0.00 0.00 48 948.0
20200809050618 84 186 4.0 8.0 0.00 0.00 0.00 48 948.0
20200809050114 84 136 4.0 8.0 0.00 0.00 0.00 47 948.0
20200809045613 84 175 4.0 8.0 0.00 0.00 0.00 47 948.0
20200809045114 84 161 5.0 8.0 0.00 0.00 0.00 47 948.0
20200809044708 84 133 4.0 9.0 0.00 0.00 0.00 47 948.0
20200809044112 84 190 4.0 10.0 0.00 0.00 0.00 47 948.0
20200809043618 84 144 4.0 10.0 0.00 0.00 0.00 46 948.0
20200809043110 84 165 4.0 9.0 0.00 0.00 0.00 46 948.0
20200809042610 84 146 4.0 10.0 0.00 0.00 0.00 46 947.9
20200809042111 84 157 4.0 10.0 0.00 0.00 0.00 46 947.9
20200809041608 84 155 4.0 10.0 0.00 0.00 0.00 45 947.9
20200809041108 84 179 4.0 10.0 0.00 0.00 0.00 45 947.9
20200809040609 85 141 4.0 8.0 0.00 0.00 0.00 45 947.9
20200809040109 85 143 3.0 7.0 0.00 0.00 0.00 44 947.9
20200809035607 85 148 3.0 9.0 0.00 0.00 0.00 44 947.8
20200809035104 85 147 4.0 9.0 0.00 0.00 0.00 43 947.8
20200809034604 85 134 4.0 9.0 0.00 0.00 0.00 43 947.8
20200809034102 85 142 3.0 8.0 0.00 0.00 0.00 43 947.8
20200809033603 86 154 3.0 7.0 0.00 0.00 0.00 42 947.8
20200809033102 86 117 3.0 6.0 0.00 0.00 0.00 42 947.8
20200809032600 86 143 2.0 5.0 0.00 0.00 0.00 41 947.8
20200809032058 87 149 3.0 6.0 0.00 0.00 0.00 41 947.7
20200809031557 87 133 3.0 6.0 0.00 0.00 0.00 41 947.7
20200809031056 87 142 3.0 6.0 0.00 0.00 0.00 41 947.5
20200809030556 87 144 3.0 6.0 0.00 0.00 0.00 40 947.4
20200809030056 88 124 3.0 7.0 0.00 0.00 0.00 40 947.4
20200809025551 88 150 3.0 7.0 0.00 0.00 0.00 40 947.4
20200809025052 88 130 3.0 6.0 0.00 0.00 0.00 40 947.4
20200809024552 89 150 3.0 7.0 0.00 0.00 0.00 40 947.3
20200809024052 89 134 4.0 8.0 0.00 0.00 0.00 39 947.2
20200809023550 89 132 4.0 10.0 0.00 0.00 0.00 39 947.2
20200809023051 89 130 4.0 10.0 0.00 0.00 0.00 39 947.1
20200809022047 90 133 4.0 10.0 0.00 0.00 0.00 38 946.9
20200809021544 90 153 5.0 10.0 0.00 0.00 0.00 38 946.9
20200809021044 90 171 5.0 10.0 0.00 0.00 0.00 38 946.9
20200809020544 90 161 5.0 9.0 0.00 0.00 0.00 37 946.9
20200809020045 91 132 5.0 9.0 0.00 0.00 0.00 37 946.8
20200809015542 91 146 5.0 9.0 0.00 0.00 0.00 37 946.8
20200809015039 91 130 5.0 9.0 0.00 0.00 0.00 37 946.8
20200809014540 92 150 5.0 9.0 0.00 0.00 0.00 36 946.8
20200809014038 92 151 5.0 12.0 0.00 0.00 0.00 36 946.7
20200809013538 92 144 5.0 12.0 0.00 0.00 0.00 36 946.7
20200809013038 93 163 5.0 12.0 0.00 0.00 0.00 36 946.7
20200809012534 93 126 5.0 12.0 0.00 0.00 0.00 36 946.7
20200809012034 93 135 6.0 13.0 0.00 0.00 0.00 35 946.7
20200809011532 94 111 6.0 13.0 0.00 0.00 0.00 35 946.6
20200809011034 94 150 6.0 11.0 0.00 0.00 0.00 35 946.6
20200809010532 94 142 6.0 13.0 0.00 0.00 0.00 35 946.5
20200809010033 94 139 7.0 14.0 0.00 0.00 0.00 35 946.6
20200809005537 95 128 7.0 14.0 0.00 0.00 0.00 34 946.5
20200809005028 95 126 6.0 11.0 0.00 0.00 0.00 34 946.5
20200809004527 95 147 6.0 11.0 0.00 0.00 0.00 34 946.4
20200809004028 95 129 5.0 11.0 0.00 0.00 0.00 34 946.3
20200809003528 95 128 6.0 10.0 0.00 0.00 0.00 34 946.2
20200809003024 96 165 7.0 13.0 0.00 0.00 0.00 34 946.2
20200809002526 96 130 8.0 13.0 0.00 0.00 0.00 34 946.2
20200809002023 96 147 7.0 13.0 0.00 0.00 0.00 34 946.2
20200809001524 96 153 6.0 12.0 0.00 0.00 0.00 34 946.2
20200809001024 96 144 6.0 13.0 0.00 0.00 0.00 34 946.2
20200809000523 96 148 6.0 13.0 0.00 0.00 0.00 34 946.2
20200809000022 96 150 6.0 12.0 0.00 0.00 0.00 34 946.1
20200808235524 96 146 6.0 12.0 0.00 0.00 0.00 34 946.2
20200808235018 96 140 6.0 12.0 0.00 0.00 0.00 34 946.1
20200808234519 96 137 6.0 12.0 0.00 0.00 0.00 34 946.2
20200808234018 96 122 6.0 14.0 0.00 0.00 0.00 34 946.2
20200808233518 96 144 6.0 14.0 0.00 0.00 0.00 34 946.2
20200808233020 96 165 5.0 10.0 0.00 0.00 0.00 34 946.2
20200808232519 96 150 5.0 14.0 0.00 0.00 0.00 34 946.2
20200808232015 96 196 6.0 14.0 0.00 0.00 0.00 35 946.3
20200808231518 97 152 6.0 14.0 0.00 0.00 0.00 35 946.2
20200808231017 97 204 7.0 15.0 0.00 0.00 0.00 35 946.2
20200808230516 97 139 6.0 15.0 0.00 0.00 0.00 34 946.3
20200808230016 97 157 6.0 14.0 0.00 0.00 0.00 34 946.3
20200808225516 97 155 7.0 14.0 0.00 0.00 0.00 35 946.3
20200808225009 97 207 6.0 10.0 0.00 0.00 0.00 34 946.4
20200808224509 97 153 6.0 11.0 0.00 0.00 0.00 35 946.3
20200808224009 98 129 6.0 11.0 0.00 0.00 0.00 34 946.4
20200808223524 98 159 6.0 12.0 0.00 0.00 0.00 35 946.4
20200808223010 98 151 5.0 12.0 0.00 0.00 0.00 35 946.4
20200808222510 98 179 5.0 9.0 0.00 0.00 0.00 36 946.5
20200808222010 98 153 6.0 11.0 0.00 0.00 0.00 35 946.5
20200808221507 98 135 7.0 19.0 0.00 0.00 0.00 36 946.5
20200808221004 98 141 8.0 19.0 0.00 0.00 0.00 36 946.6
20200808220507 98 138 6.0 19.0 0.00 0.00 0.00 36 946.4
20200808220004 98 209 6.0 11.0 0.00 0.00 0.00 37 946.6
20200808215503 97 185 6.0 15.0 0.00 0.00 0.00 37 946.7
20200808215005 97 130 5.0 15.0 0.00 0.00 0.00 37 946.7
20200808214459 97 153 6.0 14.0 0.00 0.00 0.00 37 946.7
20200808213958 97 165 6.0 14.0 0.00 0.00 0.00 37 946.8
20200808213457 97 201 6.0 15.0 0.00 0.00 0.00 38 946.8
20200808212958 97 153 6.0 15.0 0.00 0.00 0.00 38 946.8
20200808212458 97 176 6.0 17.0 0.00 0.00 0.00 38 946.9
20200808211958 97 223 7.0 17.0 0.00 0.00 0.00 37 947.0
20200808211450 97 213 7.0 15.0 0.00 0.00 0.00 38 946.9
20200808210953 96 113 6.0 14.0 0.00 0.00 0.00 39 946.9
20200808210452 96 168 6.0 14.0 0.00 0.00 0.00 38 947.0
20200808205952 96 209 6.0 14.0 0.00 0.00 0.00 38 947.1
20200808204955 96 128 5.0 13.0 0.00 0.00 0.00 38 947.1
20200808204446 96 190 5.0 16.0 0.00 0.00 0.00 39 947.2
20200808203945 96 132 6.0 16.0 0.00 0.00 0.00 39 947.2
20200808203446 96 205 7.0 21.0 0.00 0.00 0.00 39 947.3
20200808202945 96 126 6.0 21.0 0.00 0.00 0.00 39 947.4
20200808202445 96 153 6.0 13.0 0.00 0.00 0.00 40 947.3
20200808201945 96 186 7.0 17.0 0.00 0.00 0.00 40 947.4
20200808201439 96 144 7.0 17.0 0.00 0.00 0.00 40 947.4
20200808200939 96 178 7.0 16.0 0.00 0.00 0.00 41 947.4
20200808200439 96 154 7.0 16.0 0.00 0.00 0.00 41 947.4
20200808195940 96 135 7.0 16.0 0.00 0.00 0.00 41 947.6
20200808195439 96 205 6.0 16.0 0.00 0.00 0.00 42 947.6
20200808194939 96 181 7.0 16.0 0.00 0.00 0.00 42 947.8
20200808194433 96 213 7.0 16.0 0.00 0.00 0.00 42 947.8
20200808193933 95 209 4.0 16.0 0.00 0.00 0.00 42 947.8
20200808193435 95 152 5.0 14.0 0.00 0.00 0.00 44 947.8
20200808192933 95 177 5.0 14.0 0.00 0.00 0.00 44 948.0
20200808192433 95 143 6.0 15.0 0.00 0.00 0.00 45 948.0
20200808191933 94 161 6.0 15.0 0.00 0.00 0.00 46 948.1
20200808191427 94 192 6.0 17.0 0.00 0.00 0.00 46 948.2
20200808190927 94 219 6.0 17.0 0.00 0.00 0.00 46 948.2
20200808190428 94 190 6.0 14.0 0.00 0.00 0.00 46 948.2
20200808185927 94 166 6.0 14.0 0.00 0.00 0.00 46 948.2
20200808185427 94 146 7.0 14.0 0.00 0.00 0.00 47 948.3
20200808184926 94 190 6.0 14.0 0.00 0.00 0.00 48 948.3
20200808184420 93 143 6.0 15.0 0.00 0.00 0.00 48 948.3
20200808183922 93 131 6.0 15.0 0.00 0.00 0.00 49 948.4
20200808183421 93 146 7.0 14.0 0.00 0.00 0.00 50 948.4
20200808182920 92 217 7.0 14.0 0.00 0.00 0.00 51 948.5
20200808182421 92 86 7.0 18.0 0.00 0.00 0.00 52 948.6
20200808181922 92 156 6.0 18.0 0.00 0.00 0.00 52 948.6
20200808181415 92 197 6.0 14.0 0.00 0.00 0.00 52 948.6
20200808180918 92 148 6.0 14.0 0.00 0.00 0.00 54 948.8
20200808180415 91 165 6.0 14.0 0.00 0.00 0.00 54 948.7
20200808175915 91 133 6.0 14.0 0.00 0.00 0.00 54 948.8
20200808175415 91 205 8.0 16.0 0.00 0.00 0.00 54 948.8
20200808174915 91 179 7.0 16.0 0.00 0.00 0.00 54 948.8
20200808174411 91 207 7.0 19.0 0.00 0.00 0.00 55 948.8
20200808173908 91 205 8.0 19.0 0.00 0.00 0.00 56 949.0
20200808173410 90 216 7.0 18.0 0.00 0.00 0.00 55 949.0
20200808172909 90 207 7.0 14.0 0.00 0.00 0.00 56 949.1
20200808172640 90 225 7.0 14.0 0.00 0.00 0.00 57 949.2
20200808171909 90 187 6.0 12.0 0.00 0.00 0.00 58 949.2
20200808171405 89 226 7.0 14.0 0.00 0.00 0.00 59 949.2
20200808170905 89 183 7.0 14.0 0.00 0.00 0.00 59 949.2
20200808170403 89 157 7.0 14.0 0.00 0.00 0.00 60 949.2
20200808165904 89 217 7.0 14.0 0.00 0.00 0.00 59 949.3
20200808165403 89 198 7.0 14.0 0.00 0.00 0.00 61 949.3